Hourly Weather Brčko

Today, 29 September, Tuesday

Time Temperature Precipitation Wind Pressure Humidity
00:00 +14°C° 0.1 mm 1 mps 751 mmHg 84%
01:00 +13°C° 0 mm 1 mps 751 mmHg 84%
02:00 +13°C° 0 mm 1 mps 751 mmHg 86%
03:00 +13°C° 0 mm 1 mps 751 mmHg 88%
04:00 +12°C° 0 mm 1 mps 751 mmHg 90%
05:00 +12°C° 0.1 mm 2 mps 752 mmHg 89%
06:00 +13°C° 0.1 mm 2 mps 752 mmHg 89%
07:00 +13°C° 0.1 mm 2 mps 752 mmHg 89%
08:00 +14°C° 0.1 mm 2 mps 753 mmHg 85%
09:00 +15°C° 0.1 mm 2 mps 753 mmHg 82%
10:00 +16°C° 0.1 mm 3 mps 753 mmHg 78%
11:00 +17°C° 0.1 mm 3 mps 753 mmHg 71%
12:00 +17°C° 0.1 mm 3 mps 753 mmHg 65%
13:00 +18°C° 0.1 mm 3 mps 753 mmHg 59%
14:00 +18°C° 0.1 mm 3 mps 753 mmHg 59%
15:00 +18°C° 0.1 mm 3 mps 753 mmHg 59%
16:00 +18°C° 0.1 mm 4 mps 753 mmHg 60%
17:00 +16°C° 0.1 mm 3 mps 753 mmHg 68%
18:00 +14°C° 0.1 mm 3 mps 753 mmHg 76%
19:00 +13°C° 0.1 mm 2 mps 754 mmHg 85%
20:00 +13°C° 0 mm 2 mps 754 mmHg 85%
21:00 +12°C° 0 mm 2 mps 754 mmHg 86%
22:00 +12°C° 0 mm 2 mps 754 mmHg 86%
23:00 +12°C° 0 mm 2 mps 754 mmHg 85%

Tomorrow, 30 September, Wednesday

Time Temperature Precipitation Wind Pressure Humidity
00:00 +13°C° 0 mm 2 mps 754 mmHg 84%
01:00 +13°C° 0 mm 2 mps 754 mmHg 83%
02:00 +13°C° 0 mm 2 mps 754 mmHg 82%
03:00 +13°C° 0 mm 2 mps 753 mmHg 82%
04:00 +13°C° 0 mm 2 mps 753 mmHg 81%
05:00 +13°C° 0 mm 2 mps 753 mmHg 79%
06:00 +13°C° 0 mm 2 mps 753 mmHg 77%
07:00 +13°C° 0 mm 2 mps 752 mmHg 75%
08:00 +14°C° 0 mm 3 mps 752 mmHg 67%
09:00 +17°C° 0 mm 4 mps 752 mmHg 60%
10:00 +19°C° 0 mm 5 mps 752 mmHg 52%
11:00 +19°C° 0 mm 5 mps 751 mmHg 50%
12:00 +20°C° 0 mm 5 mps 751 mmHg 48%
13:00 +21°C° 0 mm 5 mps 750 mmHg 46%
14:00 +20°C° 0 mm 5 mps 750 mmHg 47%
15:00 +20°C° 0 mm 4 mps 750 mmHg 49%
16:00 +20°C° 0 mm 4 mps 749 mmHg 50%
17:00 +19°C° 0 mm 3 mps 749 mmHg 54%
18:00 +17°C° 0 mm 3 mps 749 mmHg 58%
19:00 +16°C° 0 mm 2 mps 749 mmHg 63%
20:00 +16°C° 0 mm 2 mps 749 mmHg 64%
21:00 +16°C° 0 mm 2 mps 749 mmHg 65%
22:00 +16°C° 0 mm 2 mps 749 mmHg 65%
23:00 +16°C° 0 mm 2 mps 749 mmHg 66%

Day after tomorrow, 1 October, Thursday

Time Temperature Precipitation Wind Pressure Humidity
00:00 +16°C° 0 mm 2 mps 748 mmHg 67%
01:00 +15°C° 0 mm 2 mps 748 mmHg 68%
02:00 +15°C° 0.1 mm 2 mps 748 mmHg 68%
03:00 +15°C° 0.1 mm 2 mps 747 mmHg 67%
04:00 +15°C° 0.1 mm 2 mps 747 mmHg 67%
05:00 +15°C° 0.1 mm 2 mps 747 mmHg 68%
06:00 +15°C° 0.1 mm 2 mps 747 mmHg 69%
07:00 +15°C° 0.1 mm 2 mps 747 mmHg 70%
08:00 +15°C° 0 mm 2 mps 747 mmHg 67%
09:00 +16°C° 0 mm 2 mps 747 mmHg 64%
10:00 +17°C° 0 mm 2 mps 747 mmHg 61%
11:00 +18°C° 0 mm 3 mps 746 mmHg 58%
12:00 +19°C° 0 mm 3 mps 746 mmHg 54%
13:00 +21°C° 0 mm 3 mps 746 mmHg 51%
14:00 +20°C° 0 mm 3 mps 746 mmHg 53%
15:00 +20°C° 0 mm 2 mps 746 mmHg 54%
16:00 +21°C° 0 mm 1 mps 746 mmHg 55%
17:00 +19°C° 0 mm 1 mps 746 mmHg 62%
18:00 +16°C° 0 mm 1 mps 746 mmHg 70%
19:00 +14°C° 0 mm 1 mps 747 mmHg 77%
20:00 +14°C° 0 mm 1 mps 747 mmHg 76%
21:00 +14°C° 0 mm 1 mps 747 mmHg 76%
22:00 +14°C° 0 mm 1 mps 747 mmHg 76%
23:00 +14°C° 0 mm 1 mps 747 mmHg 76%

2 October, Friday

Time Temperature Precipitation Wind Pressure Humidity
00:00 +13°C° 0 mm 2 mps 747 mmHg 77%
01:00 +13°C° 0 mm 2 mps 747 mmHg 77%
02:00 +13°C° 0 mm 2 mps 747 mmHg 78%
03:00 +13°C° 0 mm 2 mps 747 mmHg 79%
04:00 +13°C° 0 mm 2 mps 747 mmHg 80%
05:00 +14°C° 0 mm 2 mps 747 mmHg 77%
06:00 +14°C° 0 mm 2 mps 747 mmHg 74%
07:00 +15°C° 0 mm 2 mps 747 mmHg 72%
08:00 +18°C° 0 mm 2 mps 747 mmHg 63%
09:00 +20°C° 0 mm 2 mps 747 mmHg 54%
10:00 +24°C° 0 mm 2 mps 747 mmHg 45%
11:00 +25°C° 0 mm 2 mps 747 mmHg 42%
12:00 +27°C° 0 mm 2 mps 747 mmHg 38%
13:00 +28°C° 0 mm 3 mps 747 mmHg 35%
14:00 +27°C° 0 mm 3 mps 747 mmHg 38%
15:00 +27°C° 0 mm 3 mps 747 mmHg 41%
16:00 +26°C° 0 mm 3 mps 747 mmHg 44%
17:00 +24°C° 0 mm 3 mps 747 mmHg 49%
18:00 +21°C° 0 mm 3 mps 747 mmHg 55%
19:00 +20°C° 0 mm 3 mps 747 mmHg 60%
20:00 +19°C° 0 mm 3 mps 747 mmHg 62%
21:00 +18°C° 0 mm 3 mps 748 mmHg 64%
22:00 +18°C° 0 mm 3 mps 748 mmHg 66%
23:00 +17°C° 0 mm 3 mps 747 mmHg 68%

3 October, Saturday

Time Temperature Precipitation Wind Pressure Humidity
00:00 +17°C° 0 mm 3 mps 747 mmHg 70%
01:00 +17°C° 0 mm 3 mps 747 mmHg 72%
02:00 +17°C° 0 mm 3 mps 747 mmHg 72%
03:00 +17°C° 0 mm 3 mps 747 mmHg 73%
04:00 +17°C° 0 mm 3 mps 747 mmHg 73%
05:00 +17°C° 0 mm 3 mps 747 mmHg 71%
06:00 +18°C° 0 mm 3 mps 747 mmHg 68%
07:00 +19°C° 0 mm 4 mps 747 mmHg 66%
08:00 +22°C° 0 mm 4 mps 747 mmHg 56%
09:00 +27°C° 0 mm 4 mps 747 mmHg 47%
10:00 +30°C° 0 mm 4 mps 747 mmHg 37%
11:00 +32°C° 0 mm 4 mps 747 mmHg 34%
12:00 +33°C° 0 mm 4 mps 747 mmHg 31%
13:00 +34°C° 0 mm 4 mps 747 mmHg 28%
14:00 +33°C° 0 mm 4 mps 746 mmHg 31%
15:00 +32°C° 0 mm 4 mps 746 mmHg 33%
16:00 +31°C° 0 mm 3 mps 746 mmHg 36%
17:00 +28°C° 0 mm 3 mps 746 mmHg 41%
18:00 +26°C° 0 mm 3 mps 746 mmHg 46%
19:00 +24°C° 0 mm 3 mps 746 mmHg 51%
20:00 +24°C° 0 mm 3 mps 746 mmHg 50%
21:00 +24°C° 0 mm 3 mps 746 mmHg 50%
22:00 +23°C° 0 mm 4 mps 747 mmHg 50%
23:00 +23°C° 0 mm 4 mps 746 mmHg 50%

4 October, Sunday

Time Temperature Precipitation Wind Pressure Humidity
00:00 +23°C° 0 mm 4 mps 746 mmHg 49%
01:00 +23°C° 0 mm 5 mps 746 mmHg 48%
02:00 +23°C° 0 mm 5 mps 746 mmHg 47%
03:00 +25°C° 0 mm 5 mps 746 mmHg 47%
04:00 +25°C° 0 mm 5 mps 745 mmHg 46%
05:00 +25°C° 0 mm 5 mps 746 mmHg 46%
06:00 +25°C° 0 mm 5 mps 746 mmHg 46%
07:00 +25°C° 0 mm 5 mps 746 mmHg 46%
08:00 +26°C° 0 mm 5 mps 746 mmHg 44%
09:00 +28°C° 0 mm 4 mps 746 mmHg 41%
10:00 +30°C° 0 mm 4 mps 746 mmHg 38%
11:00 +30°C° 0.1 mm 5 mps 746 mmHg 40%
12:00 +30°C° 0.1 mm 5 mps 746 mmHg 43%
13:00 +30°C° 0.1 mm 6 mps 746 mmHg 45%
14:00 +28°C° 0.4 mm 5 mps 746 mmHg 54%
15:00 +26°C° 0.4 mm 3 mps 746 mmHg 62%
16:00 +25°C° 0.4 mm 2 mps 746 mmHg 71%
17:00 +24°C° 0.8 mm 2 mps 747 mmHg 75%
18:00 +21°C° 0.8 mm 3 mps 747 mmHg 80%
19:00 +20°C° 0.8 mm 3 mps 747 mmHg 85%
20:00 +20°C° 0.8 mm 2 mps 748 mmHg 86%
21:00 +20°C° 0.8 mm 2 mps 748 mmHg 87%
22:00 +20°C° 0.8 mm 1 mps 748 mmHg 88%
23:00 +20°C° 0.8 mm 1 mps 748 mmHg 89%
Show more